sat.trackr.live / text

‹ back to catalog

STARLINK-36696

NORAD 67651 · 2026-022D

PAYLOAD ACTIVE UNKNOWN

§ Identity

Operator
Country
US
Launch date
2026-02-02
Launch site
AFWTR
Launch vehicle
Mass (kg)
RCS (m²)

Purposes: comms

External: N2YO · Heavens-Above · Gunter

§ Orbital elements

Epoch: 2026-09-19T20:10:25.517568Z

Period
93.91 min
Inclination
97.2854°
Eccentricity
0.0000595
Mean motion
15.33455966 rev/d
Perigee alt
465.1 km
Apogee alt
465.9 km
Semi-major
6,843.6 km
B*
7.9692e-4
RAAN
294.3751°
Arg perigee
86.1150°
Mean anomaly
274.0161°
Rev number
3,532

§ Raw data

STARLINK-366961 67651U 26022D   26262.84057312  .00025749  00000+0  79692-3 0  99972 67651  97.2854 294.3751 0000595  86.1150 274.0161 15.33455966 35324

JSON: /api/v1/satellites/67651 · /tle

For live sub-satellite position, see the globe view (requires WebGL).

§ Visibility from observer

Set your observer location to see the next 7 days of passes ≥ 10°. The values pass through the URL so the page stays shareable.

No JS? Fill the form by hand. The geolocation button needs JavaScript.